Location: Dreilärchen
(47.9312°N, 8.6113°E)
Time: 23:06:43
(UTC+00:00)

Cosmos 1328 - Pass Details

Date: 26 May 2022
Orbit: 524 x 551 km, 82.5° (Epoch: 02 July)

Event Time Altitude Azimuth Distance (km) Brightness Sun altitude
Exits shadow 02:53:22 - 201° (SSW) 2,177 6.3 -6.4°
Reaches altitude 10° 02:54:20 10° 204° (SSW) 1,790 5.9 -6.3°
Maximum altitude 02:58:12 54° 283° (WNW) 662 4.0 -5.8°
Drops below altitude 10° 03:02:08 10° 1° (N) 1,823 7.1 -5.3°
Sets 03:04:21 0° 6° (N) 2,725 8.1 -5.0°
